Year,Month,Day,Hour,Minute,Value (Times are PST for temperature in C)
2012,11,15,00,00,-6.60
2012,11,15,00,01,-6.50
2012,11,15,00,02,-6.40
2012,11,15,00,03,-6.40
2012,11,15,00,04,-6.40
2012,11,15,00,05,-6.40
2012,11,15,00,06,-6.40
2012,11,15,00,07,-6.40
2012,11,15,00,08,-6.30
2012,11,15,00,09,-6.30
2012,11,15,00,10,-6.30
2012,11,15,00,11,-6.30
2012,11,15,00,12,-6.30
2012,11,15,00,13,-6.30
2012,11,15,00,14,-6.20
2012,11,15,00,15,-6.20
2012,11,15,00,16,-6.20
2012,11,15,00,17,-6.20
2012,11,15,00,18,-6.20
2012,11,15,00,19,-6.20
2012,11,15,00,20,-6.20
2012,11,15,00,21,-6.20
2012,11,15,00,22,-6.20
2012,11,15,00,23,-6.20
2012,11,15,00,24,-6.20
2012,11,15,00,25,-6.20
2012,11,15,00,26,-6.10
2012,11,15,00,27,-6.10
2012,11,15,00,28,-6.10
2012,11,15,00,29,-6.10
2012,11,15,00,30,-6.10
2012,11,15,00,31,-6.00
2012,11,15,00,32,-6.00
2012,11,15,00,33,-6.00
2012,11,15,00,34,-5.90
2012,11,15,00,35,-5.90
2012,11,15,00,36,-5.90
2012,11,15,00,37,-5.90
2012,11,15,00,38,-5.90
2012,11,15,00,39,-5.90
2012,11,15,00,40,-5.80
2012,11,15,00,41,-5.80
2012,11,15,00,42,-5.80
2012,11,15,00,43,-5.80
2012,11,15,00,44,-5.80
2012,11,15,00,45,-5.80
2012,11,15,00,46,-5.80
2012,11,15,00,47,-5.80
2012,11,15,00,48,-5.70
2012,11,15,00,49,-5.70
2012,11,15,00,50,-5.70
2012,11,15,00,51,-5.70
2012,11,15,00,52,-5.70
2012,11,15,00,53,-5.70
2012,11,15,00,54,-5.70
2012,11,15,00,55,-5.70
2012,11,15,00,56,-5.70
2012,11,15,00,57,-5.70
2012,11,15,00,58,-5.70
2012,11,15,00,59,-5.70
2012,11,15,01,00,-5.70
2012,11,15,01,01,-5.70
2012,11,15,01,02,-5.70
2012,11,15,01,03,-5.70
2012,11,15,01,04,-5.70
2012,11,15,01,05,-5.70
2012,11,15,01,06,-5.70
2012,11,15,01,07,-5.70
2012,11,15,01,08,-5.70
2012,11,15,01,09,-5.70
2012,11,15,01,10,-5.70
2012,11,15,01,11,-5.70
2012,11,15,01,12,-5.70
2012,11,15,01,13,-5.70
2012,11,15,01,14,-5.70
2012,11,15,01,15,-5.70
2012,11,15,01,16,-5.70
2012,11,15,01,17,-5.70
2012,11,15,01,18,-5.70
2012,11,15,01,19,-5.70
2012,11,15,01,20,-5.70
2012,11,15,01,21,-5.70
2012,11,15,01,22,-5.70
2012,11,15,01,23,-5.70
2012,11,15,01,24,-5.70
2012,11,15,01,25,-5.70
2012,11,15,01,26,-5.70
2012,11,15,01,27,-5.70
2012,11,15,01,28,-5.80
2012,11,15,01,29,-5.70
2012,11,15,01,30,-5.80
2012,11,15,01,31,-5.80
2012,11,15,01,32,-5.70
2012,11,15,01,33,-5.70
2012,11,15,01,34,-5.70
2012,11,15,01,35,-5.70
2012,11,15,01,36,-5.70
2012,11,15,01,37,-5.70
2012,11,15,01,38,-5.70
2012,11,15,01,39,-5.70
2012,11,15,01,40,-5.70
2012,11,15,01,41,-5.70
2012,11,15,01,42,-5.70
2012,11,15,01,43,-5.70
2012,11,15,01,44,-5.70
2012,11,15,01,45,-5.60
2012,11,15,01,46,-5.60
2012,11,15,01,47,-5.60
2012,11,15,01,48,-5.60
2012,11,15,01,49,-5.60
2012,11,15,01,50,-5.60
2012,11,15,01,51,-5.60
2012,11,15,01,52,-5.60
2012,11,15,01,53,-5.50
2012,11,15,01,54,-5.50
2012,11,15,01,55,-5.50
2012,11,15,01,56,-5.50
2012,11,15,01,57,-5.50
2012,11,15,01,58,-5.50
2012,11,15,01,59,-5.50
2012,11,15,02,00,-5.50
2012,11,15,02,01,-5.50
2012,11,15,02,02,-5.50
2012,11,15,02,03,-5.40
2012,11,15,02,04,-5.40
2012,11,15,02,05,-5.40
2012,11,15,02,06,-5.40
2012,11,15,02,07,-5.40
2012,11,15,02,08,-5.30
2012,11,15,02,09,-5.30
2012,11,15,02,10,-5.30
2012,11,15,02,11,-5.30
2012,11,15,02,12,-5.20
2012,11,15,02,13,-5.20
2012,11,15,02,14,-5.20
2012,11,15,02,15,-5.20
2012,11,15,02,16,-5.20
2012,11,15,02,17,-5.20
2012,11,15,02,18,-5.10
2012,11,15,02,19,-5.10
2012,11,15,02,20,-5.10
2012,11,15,02,21,-5.10
2012,11,15,02,22,-5.00
2012,11,15,02,23,-5.00
2012,11,15,02,24,-5.00
2012,11,15,02,25,-5.00
2012,11,15,02,26,-5.00
2012,11,15,02,27,-5.00
2012,11,15,02,28,-5.00
2012,11,15,02,29,-4.90
2012,11,15,02,30,-4.90
2012,11,15,02,31,-4.90
2012,11,15,02,32,-4.90
2012,11,15,02,33,-4.90
2012,11,15,02,34,-4.90
2012,11,15,02,35,-4.80
2012,11,15,02,36,-4.80
2012,11,15,02,37,-4.80
2012,11,15,02,38,-4.80
2012,11,15,02,39,-4.80
2012,11,15,02,40,-4.80
2012,11,15,02,41,-4.80
2012,11,15,02,42,-4.80
2012,11,15,02,43,-4.70
2012,11,15,02,44,-4.70
2012,11,15,02,45,-4.70
2012,11,15,02,46,-4.70
2012,11,15,02,47,-4.70
2012,11,15,02,48,-4.70
2012,11,15,02,49,-4.60
2012,11,15,02,50,-4.60
2012,11,15,02,51,-4.60
2012,11,15,02,52,-4.60
2012,11,15,02,53,-4.60
2012,11,15,02,54,-4.60
2012,11,15,02,55,-4.60
2012,11,15,02,56,-4.50
2012,11,15,02,57,-4.50
2012,11,15,02,58,-4.50
2012,11,15,02,59,-4.50
2012,11,15,03,00,-4.50
2012,11,15,03,01,-4.50
2012,11,15,03,02,-4.50
2012,11,15,03,03,-4.50
2012,11,15,03,04,-4.50
2012,11,15,03,05,-4.50
2012,11,15,03,06,-4.40
2012,11,15,03,07,-4.40
2012,11,15,03,08,-4.40
2012,11,15,03,09,-4.40
2012,11,15,03,10,-4.30
2012,11,15,03,11,-4.30
2012,11,15,03,12,-4.30
2012,11,15,03,13,-4.20
2012,11,15,03,14,-4.20
2012,11,15,03,15,-4.20
2012,11,15,03,16,-4.10
2012,11,15,03,17,-4.10
2012,11,15,03,18,-4.10
2012,11,15,03,19,-4.10
2012,11,15,03,20,-4.10
2012,11,15,03,21,-4.10
2012,11,15,03,22,-4.10
2012,11,15,03,23,-4.10
2012,11,15,03,24,-4.10
2012,11,15,03,25,-4.00
2012,11,15,03,26,-4.00
2012,11,15,03,27,-4.00
2012,11,15,03,28,-4.00
2012,11,15,03,29,-4.00
2012,11,15,03,30,-4.00
2012,11,15,03,31,-4.00
2012,11,15,03,32,-4.00
2012,11,15,03,33,-4.00
2012,11,15,03,34,-3.90
2012,11,15,03,35,-3.90
2012,11,15,03,36,-3.90
2012,11,15,03,37,-3.90
2012,11,15,03,38,-3.90
2012,11,15,03,39,-3.90
2012,11,15,03,40,-3.90
2012,11,15,03,41,-3.90
2012,11,15,03,42,-3.90
2012,11,15,03,43,-3.90
2012,11,15,03,44,-3.90
2012,11,15,03,45,-3.80
2012,11,15,03,46,-3.90
2012,11,15,03,47,-3.80
2012,11,15,03,48,-3.80
2012,11,15,03,49,-3.80
2012,11,15,03,50,-3.80
2012,11,15,03,51,-3.80
2012,11,15,03,52,-3.80
2012,11,15,03,53,-3.80
2012,11,15,03,54,-3.70
2012,11,15,03,55,-3.70
2012,11,15,03,56,-3.70
2012,11,15,03,57,-3.70
2012,11,15,03,58,-3.70
2012,11,15,03,59,-3.70
2012,11,15,04,00,-3.70
2012,11,15,04,01,-3.70
2012,11,15,04,02,-3.70
2012,11,15,04,03,-3.70
2012,11,15,04,04,-3.70
2012,11,15,04,05,-3.60
2012,11,15,04,06,-3.60
2012,11,15,04,07,-3.60
2012,11,15,04,08,-3.60
2012,11,15,04,09,-3.60
2012,11,15,04,10,-3.60
2012,11,15,04,11,-3.60
2012,11,15,04,12,-3.60
2012,11,15,04,13,-3.60
2012,11,15,04,14,-3.60
2012,11,15,04,15,-3.60
2012,11,15,04,16,-3.50
2012,11,15,04,17,-3.50
2012,11,15,04,18,-3.50
2012,11,15,04,19,-3.50
2012,11,15,04,20,-3.50
2012,11,15,04,21,-3.50
2012,11,15,04,22,-3.50
2012,11,15,04,23,-3.40
2012,11,15,04,24,-3.40
2012,11,15,04,25,-3.40
2012,11,15,04,26,-3.40
2012,11,15,04,27,-3.30
2012,11,15,04,28,-3.30
2012,11,15,04,29,-3.20
2012,11,15,04,30,-3.20
2012,11,15,04,31,-3.10
2012,11,15,04,32,-3.10
2012,11,15,04,33,-3.10
2012,11,15,04,34,-3.10
2012,11,15,04,35,-3.00
2012,11,15,04,36,-3.00
2012,11,15,04,37,-3.00
2012,11,15,04,38,-2.90
2012,11,15,04,39,-2.80
2012,11,15,04,40,-2.80
2012,11,15,04,41,-2.80
2012,11,15,04,42,-2.80
2012,11,15,04,43,-2.70
2012,11,15,04,44,-2.70
2012,11,15,04,45,-2.70
2012,11,15,04,46,-2.60
2012,11,15,04,47,-2.60
2012,11,15,04,48,-2.60
2012,11,15,04,49,-2.50
2012,11,15,04,50,-2.50
2012,11,15,04,51,-2.50
2012,11,15,04,52,-2.50
2012,11,15,04,53,-2.50
2012,11,15,04,54,-2.50
2012,11,15,04,55,-2.50
2012,11,15,04,56,-2.50
2012,11,15,04,57,-2.50
2012,11,15,04,58,-2.50
2012,11,15,04,59,-2.50
2012,11,15,05,00,-2.50
2012,11,15,05,01,-2.50
2012,11,15,05,02,-2.40
2012,11,15,05,03,-2.40
2012,11,15,05,04,-2.40
2012,11,15,05,05,-2.40
2012,11,15,05,06,-2.40
2012,11,15,05,07,-2.40
2012,11,15,05,08,-2.40
2012,11,15,05,09,-2.40
2012,11,15,05,10,-2.30
2012,11,15,05,11,-2.30
2012,11,15,05,12,-2.30
2012,11,15,05,13,-2.30
2012,11,15,05,14,-2.30
2012,11,15,05,15,-2.30
2012,11,15,05,16,-2.30
2012,11,15,05,17,-2.30
2012,11,15,05,18,-2.30
2012,11,15,05,19,-2.40
2012,11,15,05,20,-2.40
2012,11,15,05,21,-2.40
2012,11,15,05,22,-2.40
2012,11,15,05,23,-2.40
2012,11,15,05,24,-2.40
2012,11,15,05,25,-2.40
2012,11,15,05,26,-2.40
2012,11,15,05,27,-2.40
2012,11,15,05,28,-2.40
2012,11,15,05,29,-2.40
2012,11,15,05,30,-2.40
2012,11,15,05,31,-2.30
2012,11,15,05,32,-2.30
2012,11,15,05,33,-2.30
2012,11,15,05,34,-2.30
2012,11,15,05,35,-2.30
2012,11,15,05,36,-2.30
2012,11,15,05,37,-2.30
2012,11,15,05,38,-2.30
2012,11,15,05,39,-2.30
2012,11,15,05,40,-2.30
2012,11,15,05,41,-2.30
2012,11,15,05,42,-2.30
2012,11,15,05,43,-2.30
2012,11,15,05,44,-2.20
2012,11,15,05,45,-2.30
2012,11,15,05,46,-2.20
2012,11,15,05,47,-2.20
2012,11,15,05,48,-2.20
2012,11,15,05,49,-2.20
2012,11,15,05,50,-2.20
2012,11,15,05,51,-2.10
2012,11,15,05,52,-2.10
2012,11,15,05,53,-2.10
2012,11,15,05,54,-2.10
2012,11,15,05,55,-2.10
2012,11,15,05,56,-2.10
2012,11,15,05,57,-2.10
2012,11,15,05,58,-2.10
2012,11,15,05,59,-2.10
2012,11,15,06,00,-2.10
2012,11,15,06,01,-2.10
2012,11,15,06,02,-2.00
2012,11,15,06,03,-2.00
2012,11,15,06,04,-2.00
2012,11,15,06,05,-2.00
2012,11,15,06,06,-2.00
2012,11,15,06,07,-2.00
2012,11,15,06,08,-2.00
2012,11,15,06,09,-2.00
2012,11,15,06,10,-2.00
2012,11,15,06,11,-2.00
2012,11,15,06,12,-2.00
2012,11,15,06,13,-2.00
2012,11,15,06,14,-2.00
2012,11,15,06,15,-2.00
2012,11,15,06,16,-2.00
2012,11,15,06,17,-2.00
2012,11,15,06,18,-2.00
2012,11,15,06,19,-2.00
2012,11,15,06,20,-2.00
2012,11,15,06,21,-2.00
2012,11,15,06,22,-2.00
2012,11,15,06,23,-2.00
2012,11,15,06,24,-1.90
2012,11,15,06,25,-1.90
2012,11,15,06,26,-1.90
2012,11,15,06,27,-1.90
2012,11,15,06,28,-1.90
2012,11,15,06,29,-1.90
2012,11,15,06,30,-1.90
2012,11,15,06,31,-1.90
2012,11,15,06,32,-1.90
2012,11,15,06,33,-1.90
2012,11,15,06,34,-1.90
2012,11,15,06,35,-1.90
2012,11,15,06,36,-1.90
2012,11,15,06,37,-1.90
2012,11,15,06,38,-1.90
2012,11,15,06,39,-1.90
2012,11,15,06,40,-1.90
2012,11,15,06,41,-1.90
2012,11,15,06,42,-1.90
2012,11,15,06,43,-1.90
2012,11,15,06,44,-1.90
2012,11,15,06,45,-1.90
2012,11,15,06,46,-1.90
2012,11,15,06,47,-1.90
2012,11,15,06,48,-1.90
2012,11,15,06,49,-1.90
2012,11,15,06,50,-1.90
2012,11,15,06,51,-1.90
2012,11,15,06,52,-1.90
2012,11,15,06,53,-1.90
2012,11,15,06,54,-1.90
2012,11,15,06,55,-1.90
2012,11,15,06,56,-1.90
2012,11,15,06,57,-1.90
2012,11,15,06,58,-1.90
2012,11,15,06,59,-1.90
2012,11,15,07,00,-1.90
2012,11,15,07,01,-2.00
2012,11,15,07,02,-2.00
2012,11,15,07,03,-2.00
2012,11,15,07,04,-2.00
2012,11,15,07,05,-2.00
2012,11,15,07,06,-2.00
2012,11,15,07,07,-2.00
2012,11,15,07,08,-2.00
2012,11,15,07,09,-2.00
2012,11,15,07,10,-2.00
2012,11,15,07,11,-2.00
2012,11,15,07,12,-2.00
2012,11,15,07,13,-2.10
2012,11,15,07,14,-2.10
2012,11,15,07,15,-2.10
2012,11,15,07,16,-2.10
2012,11,15,07,17,-2.10
2012,11,15,07,18,-2.10
2012,11,15,07,19,-2.10
2012,11,15,07,20,-2.10
2012,11,15,07,21,-2.10
2012,11,15,07,22,-2.10
2012,11,15,07,23,-2.10
2012,11,15,07,24,-2.10
2012,11,15,07,25,-2.10
2012,11,15,07,26,-2.10
2012,11,15,07,27,-2.10
2012,11,15,07,28,-2.10
2012,11,15,07,29,-2.10
2012,11,15,07,30,-2.10
2012,11,15,07,31,-2.10
2012,11,15,07,32,-2.10
2012,11,15,07,33,-2.10
2012,11,15,07,34,-2.10
2012,11,15,07,35,-2.10
2012,11,15,07,36,-2.10
2012,11,15,07,37,-2.10
2012,11,15,07,38,-2.10
2012,11,15,07,39,-2.10
2012,11,15,07,40,-2.10
2012,11,15,07,41,-2.10
2012,11,15,07,42,-2.10
2012,11,15,07,43,-2.10
2012,11,15,07,44,-2.10
2012,11,15,07,45,-2.10
2012,11,15,07,46,-2.10
2012,11,15,07,47,-2.10
2012,11,15,07,48,-2.10
2012,11,15,07,49,-2.10
2012,11,15,07,50,-2.10
2012,11,15,07,51,-2.10
2012,11,15,07,52,-2.10
2012,11,15,07,53,-2.10
2012,11,15,07,54,-2.10
2012,11,15,07,55,-2.10
2012,11,15,07,56,-2.10
2012,11,15,07,57,-2.00
2012,11,15,07,58,-2.00
2012,11,15,07,59,-2.00
2012,11,15,08,00,-2.00
2012,11,15,08,01,-2.00
2012,11,15,08,02,-2.00
2012,11,15,08,03,-2.00
2012,11,15,08,04,-2.00
2012,11,15,08,05,-2.00
2012,11,15,08,06,-2.00
2012,11,15,08,07,-2.00
2012,11,15,08,08,-2.00
2012,11,15,08,09,-1.90
2012,11,15,08,10,-2.00
2012,11,15,08,11,-1.90
2012,11,15,08,12,-1.90
2012,11,15,08,13,-2.00
2012,11,15,08,14,-2.00
2012,11,15,08,15,-2.00
2012,11,15,08,16,-2.00
2012,11,15,08,17,-2.00
2012,11,15,08,18,-2.00
2012,11,15,08,19,-2.00
2012,11,15,08,20,-2.00
2012,11,15,08,21,-2.00
2012,11,15,08,22,-2.00
2012,11,15,08,23,-2.00
2012,11,15,08,24,-2.00
2012,11,15,08,25,-2.00
2012,11,15,08,26,-2.00
2012,11,15,08,27,-2.00
2012,11,15,08,28,-2.00
2012,11,15,08,29,-2.00
2012,11,15,08,30,-2.00
2012,11,15,08,31,-2.00
2012,11,15,08,32,-1.90
2012,11,15,08,33,-1.90
2012,11,15,08,34,-1.90
2012,11,15,08,35,-1.90
2012,11,15,08,36,-2.00
2012,11,15,08,37,-1.90
2012,11,15,08,38,-1.90
2012,11,15,08,39,-2.00
2012,11,15,08,40,-2.00
2012,11,15,08,41,-2.00
2012,11,15,08,42,-2.00
2012,11,15,08,43,-2.00
2012,11,15,08,44,-2.00
2012,11,15,08,45,-2.00
2012,11,15,08,46,-2.00
2012,11,15,08,47,-1.90
2012,11,15,08,48,-1.90
2012,11,15,08,49,-1.90
2012,11,15,08,50,-1.90
2012,11,15,08,51,-1.90
2012,11,15,08,52,-1.90
2012,11,15,08,53,-1.90
2012,11,15,08,54,-1.90
2012,11,15,08,55,-1.90
2012,11,15,08,56,-1.90
2012,11,15,08,57,-1.90
2012,11,15,08,58,-1.90
2012,11,15,08,59,-1.90
2012,11,15,09,00,-1.90
2012,11,15,09,01,-1.80
2012,11,15,09,02,-1.80
2012,11,15,09,03,-1.80
2012,11,15,09,04,-1.80
2012,11,15,09,05,-1.80
2012,11,15,09,06,-1.80
2012,11,15,09,07,-1.90
2012,11,15,09,08,-1.90
2012,11,15,09,09,-1.90
2012,11,15,09,10,-1.90
2012,11,15,09,11,-1.90
2012,11,15,09,12,-1.90
2012,11,15,09,13,-1.80
2012,11,15,09,14,-1.80
2012,11,15,09,15,-1.80
2012,11,15,09,16,-1.80
2012,11,15,09,17,-1.80
2012,11,15,09,18,-1.80
2012,11,15,09,19,-1.80
2012,11,15,09,20,-1.80
2012,11,15,09,21,-1.80
2012,11,15,09,22,-1.80
2012,11,15,09,23,-1.80
2012,11,15,09,24,-1.80
2012,11,15,09,25,-1.80
2012,11,15,09,26,-1.80
2012,11,15,09,27,-1.80
2012,11,15,09,28,-1.70
2012,11,15,09,29,-1.70
2012,11,15,09,30,-1.70
2012,11,15,09,31,-1.70
2012,11,15,09,32,-1.70
2012,11,15,09,33,-1.70
2012,11,15,09,34,-1.70
2012,11,15,09,35,-1.70
2012,11,15,09,36,-1.60
2012,11,15,09,37,-1.60
2012,11,15,09,38,-1.60
2012,11,15,09,39,-1.60
2012,11,15,09,40,-1.60
2012,11,15,09,41,-1.60
2012,11,15,09,42,-1.50
2012,11,15,09,43,-1.50
2012,11,15,09,44,-1.50
2012,11,15,09,45,-1.60
2012,11,15,09,46,-1.60
2012,11,15,09,47,-1.60
2012,11,15,09,48,-1.60
2012,11,15,09,49,-1.60
2012,11,15,09,50,-1.60
2012,11,15,09,51,-1.60
2012,11,15,09,52,-1.60
2012,11,15,09,53,-1.50
2012,11,15,09,54,-1.50
2012,11,15,09,55,-1.50
2012,11,15,09,56,-1.50
2012,11,15,09,57,-1.50
2012,11,15,09,58,-1.50
2012,11,15,09,59,-1.50
2012,11,15,10,00,-1.50
2012,11,15,10,01,-1.40
2012,11,15,10,02,-1.50
2012,11,15,10,03,-1.40
2012,11,15,10,04,-1.40
2012,11,15,10,05,-1.40
2012,11,15,10,06,-1.40
2012,11,15,10,07,-1.40
2012,11,15,10,08,-1.40
2012,11,15,10,09,-1.40
2012,11,15,10,10,-1.40
2012,11,15,10,11,-1.40
2012,11,15,10,12,-1.40
2012,11,15,10,13,-1.40
2012,11,15,10,14,-1.40
2012,11,15,10,15,-1.40
2012,11,15,10,16,-1.40
2012,11,15,10,17,-1.40
2012,11,15,10,18,-1.30
2012,11,15,10,19,-1.30
2012,11,15,10,20,-1.30
2012,11,15,10,21,-1.30
2012,11,15,10,22,-1.30
2012,11,15,10,23,-1.30
2012,11,15,10,24,-1.20
2012,11,15,10,25,-1.20
2012,11,15,10,26,-1.20
2012,11,15,10,27,-1.20
2012,11,15,10,28,-1.20
2012,11,15,10,29,-1.20
2012,11,15,10,30,-1.20
2012,11,15,10,31,-1.20
2012,11,15,10,32,-1.20
2012,11,15,10,33,-1.10
2012,11,15,10,34,-1.10
2012,11,15,10,35,-1.10
2012,11,15,10,36,-1.10
2012,11,15,10,37,-1.10
2012,11,15,10,38,-1.10
2012,11,15,10,39,-1.10
2012,11,15,10,40,-1.10
2012,11,15,10,41,-1.10
2012,11,15,10,42,-1.10
2012,11,15,10,43,-1.10
2012,11,15,10,44,-1.10
2012,11,15,10,45,-1.10
2012,11,15,10,46,-1.10
2012,11,15,10,47,-1.10
2012,11,15,10,48,-1.10
2012,11,15,10,49,-1.10
2012,11,15,10,50,-1.10
2012,11,15,10,51,-1.10
2012,11,15,10,52,-1.10
2012,11,15,10,53,-1.10
2012,11,15,10,54,-1.00
2012,11,15,10,55,-1.00
2012,11,15,10,56,-1.00
2012,11,15,10,57,-1.00
2012,11,15,10,58,-1.00
2012,11,15,10,59,-1.00
2012,11,15,11,00,-1.00
2012,11,15,11,01,-1.00
2012,11,15,11,02,-0.90
2012,11,15,11,03,-0.90
2012,11,15,11,04,-0.90
2012,11,15,11,05,-0.90
2012,11,15,11,06,-0.90
2012,11,15,11,07,-0.90
2012,11,15,11,08,-0.80
2012,11,15,11,09,-0.80
2012,11,15,11,10,-0.80
2012,11,15,11,11,-0.80
2012,11,15,11,12,-0.80
2012,11,15,11,13,-0.80
2012,11,15,11,14,-0.70
2012,11,15,11,15,-0.70
2012,11,15,11,16,-0.70
2012,11,15,11,17,-0.70
2012,11,15,11,18,-0.60
2012,11,15,11,19,-0.60
2012,11,15,11,20,-0.60
2012,11,15,11,21,-0.50
2012,11,15,11,22,-0.50
2012,11,15,11,23,-0.50
2012,11,15,11,24,-0.50
2012,11,15,11,25,-0.40
2012,11,15,11,26,-0.40
2012,11,15,11,27,-0.40
2012,11,15,11,28,-0.40
2012,11,15,11,29,-0.30
2012,11,15,11,30,-0.30
2012,11,15,11,31,-0.30
2012,11,15,11,32,-0.30
2012,11,15,11,33,-0.30
2012,11,15,11,34,-0.30
2012,11,15,11,35,-0.30
2012,11,15,11,36,-0.30
2012,11,15,11,37,-0.30
2012,11,15,11,38,-0.30
2012,11,15,11,39,-0.20
2012,11,15,11,40,-0.20
2012,11,15,11,41,-0.20
2012,11,15,11,42,-0.20
2012,11,15,11,43,-0.20
2012,11,15,11,44,-0.10
2012,11,15,11,45,-0.10
2012,11,15,11,46,-0.10
2012,11,15,11,47,-0.10
2012,11,15,11,48,-0.10
2012,11,15,11,49,-0.10
2012,11,15,11,50,-0.10
2012,11,15,11,51,-17.00
2012,11,15,11,52,-17.80
2012,11,15,11,53,-17.80
2012,11,15,11,54,-17.80
2012,11,15,11,55,-17.80
2012,11,15,11,56,-17.80
2012,11,15,11,57,-17.70
2012,11,15,11,58,-17.70
2012,11,15,11,59,-17.70
2012,11,15,12,00,-17.70
2012,11,15,12,01,-17.70
2012,11,15,12,02,-17.70
2012,11,15,12,03,-17.70
2012,11,15,12,04,-17.70
2012,11,15,12,05,-17.70
2012,11,15,12,06,-17.60
2012,11,15,12,07,-17.60
2012,11,15,12,08,-17.60
2012,11,15,12,09,-17.60
2012,11,15,12,10,-17.60
2012,11,15,12,11,-17.60
2012,11,15,12,12,-17.50
2012,11,15,12,13,-17.50
2012,11,15,12,14,-17.50
2012,11,15,12,15,-17.40
2012,11,15,12,16,-17.40
2012,11,15,12,17,-17.40
2012,11,15,12,18,-17.40
2012,11,15,12,19,-17.30
2012,11,15,12,20,-17.30
2012,11,15,12,21,-17.30
2012,11,15,12,22,-17.30
2012,11,15,12,23,-17.20
2012,11,15,12,24,-17.20
2012,11,15,12,25,-17.20
2012,11,15,12,26,-17.20
2012,11,15,12,27,-17.20
2012,11,15,12,28,-17.10
2012,11,15,12,29,-17.10
2012,11,15,12,30,-17.10
2012,11,15,12,31,-17.10
2012,11,15,12,32,-17.10
2012,11,15,12,33,-17.10
2012,11,15,12,34,-17.10
2012,11,15,12,35,-17.00
2012,11,15,12,36,-17.00
2012,11,15,12,37,-17.00
2012,11,15,12,38,-17.00
2012,11,15,12,39,-16.90
2012,11,15,12,40,-16.90
2012,11,15,12,41,-16.90
2012,11,15,12,42,-16.90
2012,11,15,12,43,-16.90
2012,11,15,12,44,-16.90
2012,11,15,12,45,-16.90
2012,11,15,12,46,-16.80
2012,11,15,12,47,-16.80
2012,11,15,12,48,-16.80
2012,11,15,12,49,-16.80
2012,11,15,12,50,-16.80
2012,11,15,12,51,-16.80
2012,11,15,12,52,-16.80
2012,11,15,12,53,-16.80
2012,11,15,12,54,-16.70
2012,11,15,12,55,-16.70
2012,11,15,12,56,-16.60
2012,11,15,12,57,-16.60
2012,11,15,12,58,-16.60
2012,11,15,12,59,-16.60
2012,11,15,13,00,-16.60
2012,11,15,13,01,-16.60
2012,11,15,13,02,-16.60
2012,11,15,13,03,-16.60
2012,11,15,13,04,-16.50
2012,11,15,13,05,-16.50
2012,11,15,13,06,-16.40
2012,11,15,13,07,-16.40
2012,11,15,13,08,-16.30
2012,11,15,13,09,-16.30
2012,11,15,13,10,-16.20
2012,11,15,13,11,-16.20
2012,11,15,13,12,-16.20
2012,11,15,13,13,-16.20
2012,11,15,13,14,-16.20
2012,11,15,13,15,-16.20
2012,11,15,13,16,-16.20
2012,11,15,13,17,-16.20
2012,11,15,13,18,-16.20
2012,11,15,13,19,-16.20
2012,11,15,13,20,-16.20
2012,11,15,13,21,-16.20
2012,11,15,13,22,-16.30
2012,11,15,13,23,-16.30
2012,11,15,13,24,-16.30
2012,11,15,13,25,-16.30
2012,11,15,13,26,-16.30
2012,11,15,13,27,-16.40
2012,11,15,13,28,-16.40
2012,11,15,13,29,-16.40
2012,11,15,13,30,-16.40
2012,11,15,13,31,-16.50
2012,11,15,13,32,-16.50
2012,11,15,13,33,-16.50
2012,11,15,13,34,-16.50
2012,11,15,13,35,-16.50
2012,11,15,13,36,-16.50
2012,11,15,13,37,-16.40
2012,11,15,13,38,-16.40
2012,11,15,13,39,-16.30
2012,11,15,13,40,-16.30
2012,11,15,13,41,-16.20
2012,11,15,13,42,-16.20
2012,11,15,13,43,-16.20
2012,11,15,13,44,-16.20
2012,11,15,13,45,-16.20
2012,11,15,13,46,-16.20
2012,11,15,13,47,-16.10
2012,11,15,13,48,-16.10
2012,11,15,13,49,-16.10
2012,11,15,13,50,-16.10
2012,11,15,13,51,-16.00
2012,11,15,13,52,-16.00
2012,11,15,13,53,-16.00
2012,11,15,13,54,-16.00
2012,11,15,13,55,-16.00
2012,11,15,13,56,-16.00
2012,11,15,13,57,-15.90
2012,11,15,13,58,-15.90
2012,11,15,13,59,-15.90
2012,11,15,14,00,-15.90
2012,11,15,14,01,-15.90
2012,11,15,14,02,-15.90
2012,11,15,14,03,-15.90
2012,11,15,14,04,-15.90
2012,11,15,14,05,-15.90
2012,11,15,14,06,-15.90
2012,11,15,14,07,-15.90
2012,11,15,14,08,-15.90
2012,11,15,14,09,-15.90
2012,11,15,14,10,-15.90
2012,11,15,14,11,-15.90
2012,11,15,14,12,-15.90
2012,11,15,14,13,-15.80
2012,11,15,14,14,-15.90
2012,11,15,14,15,-15.80
2012,11,15,14,16,-15.80
2012,11,15,14,17,-15.80
2012,11,15,14,18,-15.80
2012,11,15,14,19,-15.80
2012,11,15,14,20,-15.80
2012,11,15,14,21,-15.80
2012,11,15,14,22,-15.80
2012,11,15,14,23,-15.80
2012,11,15,14,24,-15.80
2012,11,15,14,25,-15.80
2012,11,15,14,26,-15.80
2012,11,15,14,27,-15.80
2012,11,15,14,28,-15.80
2012,11,15,14,29,-15.80
2012,11,15,14,30,-15.80
2012,11,15,14,31,-15.80
2012,11,15,14,32,-15.80
2012,11,15,14,33,-15.80
2012,11,15,14,34,-15.80
2012,11,15,14,35,-15.80
2012,11,15,14,36,-15.80
2012,11,15,14,37,-15.80
2012,11,15,14,38,-15.80
2012,11,15,14,39,-15.80
2012,11,15,14,40,-15.80
2012,11,15,14,41,-15.80
2012,11,15,14,42,-15.80
2012,11,15,14,43,-15.80
2012,11,15,14,44,-15.80
2012,11,15,14,45,-15.80
2012,11,15,14,46,-15.80
2012,11,15,14,47,-15.80
2012,11,15,14,48,-15.80
2012,11,15,14,49,-15.80
2012,11,15,14,50,-15.80
2012,11,15,14,51,-15.80
2012,11,15,14,52,-15.80
2012,11,15,14,53,-15.80
2012,11,15,14,54,-15.80
2012,11,15,14,55,-15.80
2012,11,15,14,56,-15.80
2012,11,15,14,57,-15.80
2012,11,15,14,58,-15.80
2012,11,15,14,59,-15.80
2012,11,15,15,00,-15.80
2012,11,15,15,01,-15.80
2012,11,15,15,02,-15.80
2012,11,15,15,03,-15.80
2012,11,15,15,04,-15.80
2012,11,15,15,05,-15.80
2012,11,15,15,06,-15.80
2012,11,15,15,07,-15.80
2012,11,15,15,08,-15.80
2012,11,15,15,09,-15.80
2012,11,15,15,10,-15.80
2012,11,15,15,11,-15.80
2012,11,15,15,12,-15.80
2012,11,15,15,13,-15.80
2012,11,15,15,14,-15.80
2012,11,15,15,15,-15.80
2012,11,15,15,16,-15.80
2012,11,15,15,17,-15.80
2012,11,15,15,18,-15.80
2012,11,15,15,19,-15.80
2012,11,15,15,20,-15.80
2012,11,15,15,21,-15.80
2012,11,15,15,22,-15.80
2012,11,15,15,23,-15.80
2012,11,15,15,24,-15.80
2012,11,15,15,25,-15.80
2012,11,15,15,26,-15.80
2012,11,15,15,27,-15.80
2012,11,15,15,28,-15.80
2012,11,15,15,29,-15.80
2012,11,15,15,30,-15.80
2012,11,15,15,31,-15.80
2012,11,15,15,32,-15.80
2012,11,15,15,33,-15.80
2012,11,15,15,34,-15.80
2012,11,15,15,35,-15.80
2012,11,15,15,36,-15.80
2012,11,15,15,37,-15.80
2012,11,15,15,38,-15.90
2012,11,15,15,39,-15.90
2012,11,15,15,40,-15.90
2012,11,15,15,41,-15.90
2012,11,15,15,42,-15.90
2012,11,15,15,43,-15.90
2012,11,15,15,44,-15.90
2012,11,15,15,45,-15.90
2012,11,15,15,46,-15.90
2012,11,15,15,47,-15.90
2012,11,15,15,48,-15.90
2012,11,15,15,49,-15.90
2012,11,15,15,50,-15.90
2012,11,15,15,51,-15.90
2012,11,15,15,52,-15.90
2012,11,15,15,53,-15.90
2012,11,15,15,54,-15.90
2012,11,15,15,55,-15.90
2012,11,15,15,56,-15.90
2012,11,15,15,57,-15.90
2012,11,15,15,58,-16.00
2012,11,15,15,59,-16.00
2012,11,15,16,00,-16.00
2012,11,15,16,01,-16.00
2012,11,15,16,02,-16.00
2012,11,15,16,03,-16.00
2012,11,15,16,04,-16.00
2012,11,15,16,05,-16.00
2012,11,15,16,06,-16.00
2012,11,15,16,07,-16.00
2012,11,15,16,08,-16.00
2012,11,15,16,09,-16.00
2012,11,15,16,10,-15.90
2012,11,15,16,11,-15.90
2012,11,15,16,12,-15.90
2012,11,15,16,13,-15.90
2012,11,15,16,14,-15.90
2012,11,15,16,15,-15.90
2012,11,15,16,16,-15.90
2012,11,15,16,17,-15.90
2012,11,15,16,18,-15.90
2012,11,15,16,19,-15.90
2012,11,15,16,20,-16.00
2012,11,15,16,21,-16.00
2012,11,15,16,22,-16.00
2012,11,15,16,23,-16.00
2012,11,15,16,24,-16.00
2012,11,15,16,25,-16.00
2012,11,15,16,26,-16.10
2012,11,15,16,27,-16.10
2012,11,15,16,28,-16.10
2012,11,15,16,29,-16.10
2012,11,15,16,30,-16.10
2012,11,15,16,31,-16.10
2012,11,15,16,32,-16.10
2012,11,15,16,33,-16.10
2012,11,15,16,34,-16.10
2012,11,15,16,35,-16.10
2012,11,15,16,36,-16.10
2012,11,15,16,37,-16.10
2012,11,15,16,38,-16.20
2012,11,15,16,39,-16.20
2012,11,15,16,40,-16.20
2012,11,15,16,41,-16.20
2012,11,15,16,42,-16.20
2012,11,15,16,43,-16.20
2012,11,15,16,44,-16.20
2012,11,15,16,45,-16.20
2012,11,15,16,46,-16.20
2012,11,15,16,47,-16.20
2012,11,15,16,48,-16.20
2012,11,15,16,49,-16.20
2012,11,15,16,50,-16.20
2012,11,15,16,51,-16.20
2012,11,15,16,52,-16.20
2012,11,15,16,53,-16.20
2012,11,15,16,54,-16.20
2012,11,15,16,55,-16.20
2012,11,15,16,56,-16.20
2012,11,15,16,57,-16.20
2012,11,15,16,58,-16.20
2012,11,15,16,59,-16.20
2012,11,15,17,00,-16.30
2012,11,15,17,01,-16.30
2012,11,15,17,02,-16.30
2012,11,15,17,03,-16.20
2012,11,15,17,04,-16.20
2012,11,15,17,05,-16.20